Theta_e
335 339 338 337 338 339 339 338 338 340 341 342 340 340 339 337 337 335 335 334 335 334 336 334 333 332 333 333 334 334 333 337 338 342 341 342 342 342 343 340 341 339 338 336 341 341 342 341 341 342 343 343 341 341 341 342 342 342 340 340 337 336 336 333 336 338 332 330 330 328 329 332 333 332 334 334 334 336 336 335 335 336 336 337 339
333 335 335 336 336 336 337 337 336 336 338 339 339 339 340 339 338 335 335 334 334 334 335 335 335 332 331 333 336 335 334 335 337 341 341 342 343 343 343 339 339 339 339 342 344 342 342 342 342 343 343 343 343 343 342 340 341 340 339 336 337 336 335 337 337 337 331 326 323 320 328 329 329 331 332 332 334 335 337 336 335 333 333 336 339
333 332 333 333 334 334 334 335 336 337 338 338 340 340 340 339 339 336 335 333 333 334 334 334 336 336 337 335 335 335 339 341 339 341 342 341 345 344 343 344 343 342 343 343 343 342 342 342 343 343 343 342 341 341 341 339 339 339 339 336 334 337 337 338 337 337 330 332 331 324 320 318 325 329 332 333 334 336 336 334 335 334 334 336 335
331 331 331 332 333 333 333 333 334 336 337 337 339 338 338 338 338 336 334 333 332 333 333 335 334 335 339 338 337 338 337 340 340 342 342 341 341 343 343 344 343 343 343 342 341 341 342 341 341 341 342 343 341 339 340 339 339 339 337 337 337 331 331 332 336 340 334 329 318 321 321 322 317 323 325 328 332 331 331 331 332 333 333 333 334
332 332 332 333 332 331 332 333 335 335 336 336 337 337 337 337 337 336 335 333 334 335 335 335 334 337 338 338 339 339 340 340 340 339 341 341 341 342 341 342 342 341 342 341 340 341 341 341 340 340 340 340 341 339 339 339 338 339 339 338 337 334 331 332 333 339 334 335 328 320 318 319 320 320 325 325 329 328 328 329 331 330 331 331 329
333 331 332 332 331 332 332 333 333 334 336 337 337 337 338 338 337 337 335 334 333 335 335 334 333 336 334 334 333 334 334 335 335 335 336 338 337 341 340 340 340 340 341 342 341 340 340 340 339 338 339 339 339 339 340 339 339 338 339 339 337 338 335 331 332 335 339 334 334 338 329 321 319 322 324 317 328 331 330 330 330 331 331 329 325
334 332 332 331 332 331 331 332 333 333 335 338 338 338 339 338 336 337 336 335 336 336 336 335 333 335 335 333 333 335 334 335 339 341 340 339 341 341 339 341 341 341 342 343 343 341 341 341 340 339 337 338 339 340 339 339 338 337 338 338 337 335 336 331 329 330 336 335 336 340 335 334 329 322 321 323 319 325 328 329 328 328 328 325 320
332 330 331 332 331 331 331 332 333 334 336 337 338 338 338 337 336 337 335 335 336 336 335 335 338 337 336 337 337 336 336 335 339 340 342 341 341 341 341 341 341 341 340 340 343 342 342 341 341 339 337 338 337 338 339 339 339 338 339 338 337 337 334 330 330 330 325 326 335 334 333 333 332 330 329 323 321 318 318 324 326 326 327 325 321
329 329 330 331 331 331 332 331 334 335 337 336 336 337 338 338 336 335 334 334 336 336 336 338 337 339 339 339 339 338 338 338 338 337 337 339 340 340 338 337 338 339 339 339 340 341 340 340 340 340 339 339 337 336 338 339 340 339 339 339 337 338 339 334 333 329 328 331 330 333 333 330 330 333 330 330 321 320 318 318 318 324 325 323 320
329 330 330 331 331 332 333 333 334 334 337 337 336 338 338 337 335 334 334 335 335 335 336 337 340 339 339 339 337 337 337 337 337 336 336 337 336 336 337 336 337 337 339 338 338 337 337 341 340 339 340 339 337 337 339 340 341 341 340 340 338 337 338 338 335 336 335 334 333 331 328 329 328 329 328 326 323 324 319 318 319 319 316 317 320
328 329 331 330 332 333 332 331 333 334 336 336 336 336 337 336 334 333 334 335 335 334 336 339 340 340 340 340 339 338 338 336 335 335 336 336 334 334 335 336 337 336 336 338 339 337 338 339 341 340 340 340 337 338 340 339 340 340 341 341 339 339 337 337 337 338 337 336 332 334 333 328 326 324 326 325 325 323 321 319 320 319 316 315 317
328 328 329 329 330 331 330 326 325 331 334 334 335 336 334 334 333 333 333 334 334 335 337 337 339 340 341 341 339 339 337 336 335 334 334 333 334 332 334 335 336 336 336 335 336 336 337 337 338 341 340 340 338 339 340 339 340 340 340 339 338 339 339 337 338 337 337 335 336 331 332 330 329 326 326 326 325 323 323 321 318 318 316 313 313
327 328 328 328 326 326 323 320 324 326 330 334 334 335 334 333 332 332 332 333 334 335 336 338 339 340 340 340 338 338 337 336 336 335 335 333 333 333 333 333 334 333 333 333 334 337 335 336 336 335 338 340 339 338 338 338 338 338 339 338 338 338 337 338 336 337 337 336 335 335 332 331 329 331 331 327 327 326 324 321 320 320 315 312 312
327 328 328 325 325 322 321 320 324 325 329 332 333 333 333 331 331 331 331 334 335 336 336 338 338 339 340 338 337 337 336 336 336 335 336 335 334 334 333 332 331 332 332 332 333 334 333 335 336 336 336 340 339 338 337 337 338 336 337 337 337 337 338 338 337 338 338 338 332 330 334 331 331 332 332 329 327 325 323 323 319 319 316 310 311
328 328 327 325 322 324 324 324 324 326 329 331 331 331 332 331 331 331 332 333 335 335 336 337 337 339 339 337 337 337 335 335 335 336 336 334 333 333 332 332 331 332 331 333 334 334 334 334 335 336 336 336 340 340 338 338 339 336 336 338 338 339 338 338 337 337 336 335 330 329 330 331 332 331 333 330 328 328 326 324 320 316 313 312 310
326 328 327 324 324 326 327 325 326 328 329 331 330 330 331 331 332 332 333 334 334 335 336 337 337 338 338 337 337 336 335 335 334 335 334 334 334 332 332 333 333 333 334 333 333 333 333 332 334 334 336 335 336 339 339 338 337 337 336 337 337 336 338 338 337 335 335 335 332 331 329 331 331 331 331 330 328 329 328 325 322 318 312 308 310
327 327 326 325 325 327 327 327 328 329 330 330 331 331 332 332 332 332 333 334 334 335 335 336 337 337 337 337 336 335 335 334 333 334 334 334 334 333 331 332 333 332 332 333 332 332 333 332 332 333 336 336 336 335 335 337 339 338 336 336 334 336 338 336 335 334 334 334 333 336 331 332 332 334 331 331 330 329 328 325 322 318 316 311 308
327 327 328 327 327 327 327 327 329 330 331 331 331 332 333 332 332 332 333 333 333 334 335 336 336 336 337 336 336 335 334 334 334 334 334 333 333 333 333 331 331 331 332 332 331 331 331 331 331 333 334 335 335 334 332 333 336 337 335 334 334 337 337 337 334 333 334 337 336 335 333 332 332 332 332 333 329 329 326 325 322 320 318 313 312
327 327 327 326 327 327 327 328 328 330 331 332 332 331 332 332 333 333 332 333 333 335 336 336 337 336 336 336 336 335 334 333 332 333 333 332 331 331 331 331 332 331 331 331 330 329 330 330 330 330 331 332 333 334 334 333 333 334 337 335 337 337 336 337 337 337 337 336 336 335 335 333 334 333 332 331 331 329 326 324 321 321 319 318 315
327 327 326 326 327 326 325 322 324 326 328 331 331 331 332 332 332 332 334 334 335 335 336 335 335 335 335 336 337 335 333 332 333 333 332 331 330 331 331 330 330 330 330 330 329 329 328 328 329 329 330 331 331 333 333 333 333 333 335 335 336 337 335 334 332 334 333 335 336 335 334 333 333 331 330 329 327 328 327 322 322 320 319 319 316
324 325 326 325 325 325 325 325 326 326 323 327 329 329 330 332 332 331 332 333 334 334 335 335 335 334 336 336 335 335 334 333 333 332 332 331 331 331 330 331 330 330 330 329 328 328 327 328 328 328 330 331 331 332 332 332 331 332 331 330 331 331 328 328 329 330 330 334 335 334 334 335 334 331 329 328 325 326 325 323 322 319 317 320 318
320 322 324 323 324 324 325 326 324 324 323 325 328 329 329 330 330 331 332 332 334 333 333 334 334 334 335 336 336 336 334 333 333 332 331 331 331 331 332 330 330 330 329 327 327 328 327 327 327 327 328 328 329 330 331 331 329 329 330 330 329 327 326 326 328 327 331 333 336 334 333 335 334 330 329 324 323 322 321 319 319 319 317 317 320
319 321 322 322 324 324 324 324 323 322 322 321 321 325 328 330 331 333 333 333 333 332 332 333 333 334 335 336 336 335 333 333 332 331 331 329 330 331 330 330 329 329 329 328 327 325 326 327 326 327 326 327 327 328 329 328 327 326 324 325 326 326 326 326 326 325 323 326 327 329 332 334 334 333 331 326 324 322 320 317 318 318 318 318 316
314 316 318 321 324 325 323 322 322 322 322 321 322 326 328 330 331 331 333 333 333 332 331 332 332 334 335 335 334 333 333 331 330 330 330 331 331 330 330 330 329 328 326 328 326 324 325 327 326 326 326 325 326 327 327 325 324 323 322 322 325 326 325 325 323 322 320 322 324 324 326 332 334 334 332 326 326 324 321 319 319 320 321 318 321
311 311 311 312 312 315 320 322 322 322 322 322 324 323 324 325 330 331 333 333 332 331 330 330 331 332 333 333 333 332 331 330 330 329 331 331 331 330 330 329 329 327 326 325 324 324 324 325 326 324 323 324 325 325 325 326 327 326 323 322 322 323 325 324 324 323 324 323 323 324 324 327 330 332 333 329 326 325 321 321 319 318 318 320 321
309 309 310 310 310 313 317 321 322 322 322 322 322 322 324 324 327 331 332 331 330 329 329 329 329 329 329 331 332 332 331 330 330 331 331 330 330 329 329 329 326 325 325 324 323 322 321 322 323 323 323 323 323 324 324 324 325 326 326 325 323 323 322 322 322 321 322 324 324 324 327 327 327 326 326 328 327 328 323 322 321 319 319 320 321
307 307 308 310 310 310 311 316 322 323 323 323 322 322 323 325 327 331 330 329 328 328 327 327 327 328 328 329 330 330 330 331 331 331 331 329 329 329 328 325 325 324 323 322 320 320 321 322 322 323 322 322 322 322 323 324 323 324 325 325 325 324 323 323 322 322 322 322 323 323 326 327 326 326 327 328 329 329 326 324 322 322 320 320 320
305 305 306 306 308 308 308 309 314 321 323 322 323 323 323 324 326 328 328 328 327 326 326 326 326 326 325 325 327 328 328 327 327 327 327 328 328 327 325 324 323 322 320 319 319 320 322 322 322 322 322 322 320 320 321 322 322 323 323 324 325 325 324 324 324 323 323 322 323 323 324 324 324 325 326 327 328 325 324 324 323 323 322 321 320
302 302 304 305 305 305 305 307 308 309 313 319 320 321 320 321 323 324 326 326 325 324 323 324 325 323 322 323 325 327 327 326 325 325 325 325 325 325 324 323 322 322 322 321 321 319 319 319 320 321 320 322 325 326 321 319 322 320 320 321 323 324 324 324 323 322 323 322 321 323 323 325 333 319 307 313 315 316 328 321 323 323 323 322 321
299 299 300 301 304 304 303 303 304 306 308 311 313 316 317 318 319 319 320 322 324 323 321 321 320 320 321 321 323 325 325 324 323 323 323 324 324 324 324 323 323 322 323 323 322 321 320 319 319 322 324 326 324 320 303 296 298 319 322 318 320 323 323 323 321 321 322 322 321 323 327 314 312 311 308 304 303 305 307 321 327 326 322 321 321
297 298 298 299 301 302 303 302 302 303 304 306 307 309 311 312 314 316 316 318 319 318 318 318 318 319 320 318 317 318 319 319 320 321 321 322 322 323 324 325 325 325 325 324 324 323 323 322 321 323 322 321 318 307 294 292 294 294 319 324 322 322 322 322 322 323 322 322 323 321 325 323 321 316 319 299 301 300 301 300 301 303 309 330 323
296 297 297 298 298 300 300 299 299 300 301 303 304 305 307 308 310 312 312 313 312 312 313 314 314 314 314 313 314 315 315 315 316 316 316 316 316 318 319 320 321 323 326 327 325 324 324 325 324 322 320 317 310 296 292 294 293 292 296 322 323 323 322 324 324 322 322 322 322 323 324 325 324 329 326 327 314 300 298 299 298 298 299 298 299
296 297 297 297 297 298 299 298 299 299 300 301 303 303 303 305 306 309 310 310 310 310 309 309 309 309 309 310 310 310 311 312 313 313 313 312 312 313 314 315 317 320 323 323 324 323 321 320 318 315 313 310 307 293 293 293 294 293 294 304 323 322 321 322 322 321 323 323 325 324 325 325 321 316 317 321 323 326 302 294 299 298 297 297 298
297 297 297 297 298 298 299 299 299 299 300 301 303 302 303 304 304 305 305 306 306 306 306 306 306 307 308 308 309 309 309 309 310 310 311 310 309 309 310 313 315 317 318 318 318 317 316 315 313 311 308 306 303 294 292 292 293 292 293 299 325 324 324 324 323 323 324 324 323 323 322 323 326 326 324 324 324 323 327 325 322 322 322 317 298
296 296 297 297 298 298 299 298 299 300 300 301 301 302 302 302 303 303 303 302 302 302 302 304 305 307 308 307 306 306 307 308 308 308 308 307 307 307 309 311 312 313 313 314 314 314 314 314 313 310 308 305 302 291 291 291 292 293 292 299 328 328 326 326 327 328 328 328 327 328 327 325 325 325 327 321 326 325 325 325 325 324 324 323 325
297 297 297 297 298 298 299 299 300 300 300 302 301 302 302 302 302 301 301 302 302 302 302 303 303 304 305 306 306 307 306 306 305 305 305 305 306 307 307 307 308 309 310 310 312 312 312 312 313 312 309 306 302 291 291 291 291 292 294 320 324 325 325 326 327 328 328 329 329 329 328 328 328 327 306 299 304 318 324 325 323 324 323 324 325
299 298 297 298 300 300 299 299 299 300 300 301 302 302 302 301 300 300 300 300 300 300 300 301 301 302 303 304 305 304 304 304 306 305 305 305 306 307 306 306 305 305 304 305 307 308 309 308 309 310 309 306 304 294 290 291 291 290 302 318 319 320 321 321 322 322 324 325 326 321 323 326 327 319 295 294 295 297 323 324 324 324 324 323 322
299 299 299 299 299 300 301 300 299 299 300 301 301 301 301 301 300 300 300 300 299 299 299 300 300 301 302 303 303 303 304 304 303 303 305 306 307 306 306 306 305 303 303 303 304 305 306 306 305 306 307 307 304 295 290 291 291 290 297 314 314 316 317 317 318 319 320 321 319 307 316 320 323 317 292 293 291 303 321 324 326 324 325 325 325
299 300 299 299 299 300 300 300 299 298 299 301 301 300 299 298 298 299 299 299 298 298 299 299 300 301 301 301 303 303 304 303 303 302 303 303 303 303 304 306 304 304 304 304 304 303 303 304 305 304 302 306 306 300 291 291 291 291 298 311 310 311 312 313 313 313 316 317 319 314 304 307 310 301 291 292 291 300 318 323 322 321 323 319 323
299 300 299 299 299 299 298 298 297 297 299 300 300 299 298 297 297 297 297 297 297 298 299 300 300 301 302 302 302 300 301 302 302 302 302 302 302 302 303 303 302 303 302 304 304 303 302 302 304 304 304 305 305 305 297 290 290 292 291 303 310 308 309 309 310 309 309 312 313 316 303 292 292 291 292 290 292 290 306 316 320 321 322 322 325
296 296 297 297 297 297 296 296 297 297 298 299 299 297 296 297 297 296 296 297 297 298 298 298 299 300 300 300 302 301 301 302 302 301 302 302 303 303 304 304 303 304 304 303 303 303 302 302 302 302 302 302 301 303 301 290 291 291 290 294 308 308 306 306 306 306 308 309 309 310 313 293 290 290 291 290 291 291 291 305 312 315 320 313 304
296 297 297 297 297 297 297 297 297 297 298 298 297 296 296 296 296 296 297 298 299 298 298 298 298 298 298 298 299 300 301 302 302 302 302 303 302 303 303 304 304 305 304 304 304 304 305 304 303 302 302 302 300 297 302 293 290 291 290 290 302 304 299 302 303 306 307 307 308 308 309 297 290 291 291 290 290 291 291 300 307 299 296 295 310
295 295 296 296 296 296 297 298 298 299 299 298 297 296 296 296 295 296 297 298 298 299 299 299 299 299 299 299 300 301 301 302 302 302 302 302 302 303 304 304 304 304 303 304 305 304 305 305 305 305 303 303 303 301 294 299 291 290 289 290 288 295 290 299 303 303 304 304 305 305 304 293 291 290 290 290 291 291 291 299 295 294 294 293 296
295 296 296 296 296 296 297 298 299 299 299 299 298 296 296 296 296 298 298 298 298 298 298 298 298 299 300 300 300 300 301 301 302 302 301 301 302 302 302 303 303 303 302 302 302 303 303 303 303 303 305 305 306 306 296 292 296 290 290 290 289 289 289 297 299 299 302 303 303 303 300 292 290 290 289 289 290 290 295 293 291 291 291 292 302
295 295 296 297 296 296 296 297 298 298 299 299 299 298 297 297 298 299 299 300 300 300 300 299 299 299 299 300 300 300 300 300 301 302 301 301 301 302 302 302 302 302 301 301 301 301 301 300 301 302 302 303 304 303 304 297 291 292 290 289 289 288 289 289 298 302 303 303 297 291 290 290 290 290 289 288 289 289 288 290 290 290 292 303 305
297 296 296 296 296 297 296 296 297 299 299 299 299 299 298 299 300 301 301 301 301 300 300 300 301 301 301 301 301 300 300 300 300 299 299 299 299 300 300 301 300 300 299 299 298 298 297 298 298 300 299 301 301 303 303 304 299 297 295 289 289 290 290 290 293 300 293 291 290 290 289 289 289 292 299 304 304 305 293 289 289 291 304 305 307
297 298 298 298 298 296 296 297 297 298 299 299 299 299 299 299 300 301 301 301 301 301 300 301 301 301 301 300 300 301 301 301 302 301 301 301 301 300 300 299 299 299 299 298 299 299 299 299 299 299 299 300 302 302 303 303 302 301 302 301 302 301 293 293 299 303 297 300 300 297 298 294 294 291 291 292 294 296 300 304 306 305 306 308 309
298 298 299 299 298 298 297 297 297 299 299 299 299 299 299 300 300 300 301 301 300 300 300 300 300 300 301 301 300 293 297 300 300 301 300 300 301 302 300 299 300 300 300 300 300 299 299 300 300 300 301 301 301 302 302 300 299 299 299 300 301 301 303 302 302 301 300 300 300 295 297 303 305 306 307 307 306 306 304 303 306 307 307 309 304
296 297 297 297 297 297 298 297 298 299 300 300 300 300 300 301 301 302 301 300 300 299 300 300 300 301 300 300 300 300 299 300 300 300 299 299 299 300 301 301 300 300 298 299 300 300 299 300 300 300 300 300 300 301 300 290 294 289 291 295 297 298 299 299 296 289 294 299 301 300 300 301 301 298 299 301 302 303 302 303 305 306 307 307 307
297 298 297 297 297 297 297 296 297 298 299 299 300 300 300 300 301 301 301 300 300 300 300 300 300 299 300 299 300 299 299 299 300 300 300 298 290 290 294 299 299 291 288 287 288 296 296 298 299 300 301 298 298 299 290 288 289 289 289 288 288 288 288 291 290 287 290 295 296 298 299 299 299 299 299 298 299 300 299 299 299 297 302 304 304
296 296 296 296 296 297 297 296 296 297 297 297 299 299 300 300 300 301 301 300 300 299 299 299 298 297 296 299 299 299 299 299 299 300 300 296 299 296 288 288 289 289 289 288 288 288 287 287 293 297 298 292 290 289 288 289 288 288 288 288 288 288 288 288 288 290 294 296 297 296 297 298 298 299 297 297 299 298 298 299 298 300 300 301 299
Wind_Speed
10 11 11 11 11 9 8 8 9 9 10 10 11 11 10 9 9 11 9 9 5 7 7 9 8 6 6 8 9 7 9 6 6 3 4 4 4 5 6 7 5 5 4 5 7 5 5 5 5 5 4 4 4 4 5 5 5 5 5 6 7 7 7 9 8 8 9 6 6 4 7 4 2 1 5 5 4 4 3 4 4 3 2 3 2
11 8 9 11 9 9 8 8 9 10 9 9 11 10 10 10 10 10 10 10 8 8 8 7 8 8 8 8 5 9 8 7 6 5 4 4 4 4 4 6 6 6 7 7 5 5 5 5 5 5 4 4 3 4 5 5 6 5 6 6 6 7 7 8 8 9 8 9 9 7 6 6 6 3 4 6 6 5 4 5 4 3 3 2 2
10 9 11 11 11 11 9 8 8 10 10 10 10 11 10 10 9 10 9 10 9 8 9 8 4 3 6 6 6 6 7 6 6 6 6 6 4 4 4 4 6 6 6 5 4 5 5 4 5 4 4 4 4 4 5 6 6 7 7 6 7 7 7 8 9 5 7 7 7 8 7 6 1 5 4 4 5 5 5 6 5 5 5 4 4
15 13 14 13 12 11 10 9 8 10 9 10 10 11 9 9 8 9 9 10 12 11 8 5 6 8 5 5 6 5 6 6 5 5 5 6 6 4 5 5 5 5 6 6 5 5 5 5 5 4 4 4 4 5 6 6 6 6 7 7 7 8 7 8 7 5 7 10 7 3 6 4 8 6 6 5 5 6 5 6 5 5 5 5 4
14 13 13 13 13 13 11 10 9 10 10 11 10 10 7 9 9 10 10 12 12 12 10 7 7 7 5 5 6 5 5 6 5 5 5 5 5 5 5 5 5 4 4 5 5 5 6 6 5 5 5 5 4 5 5 6 7 7 7 7 8 7 8 8 10 6 7 1 6 5 2 4 4 8 8 6 4 5 6 6 5 5 5 4 4
15 15 14 13 13 13 12 12 11 11 10 10 10 10 10 11 11 11 10 11 12 13 12 10 9 8 8 8 8 8 7 7 7 7 6 6 6 4 5 5 5 5 5 5 5 5 5 5 6 6 6 5 4 4 5 6 7 7 7 7 8 7 7 7 7 6 6 5 3 4 2 3 8 10 8 7 4 5 6 6 6 6 5 4 4
14 13 14 14 13 13 13 13 12 11 11 9 9 11 11 11 12 12 11 10 11 12 13 10 10 9 10 10 10 8 7 6 5 6 6 5 4 5 5 4 4 5 4 5 5 5 6 5 6 6 6 6 5 4 5 6 6 7 7 7 6 8 7 4 6 8 3 3 5 1 5 6 8 11 7 9 9 5 5 5 6 6 5 5 5
12 13 14 14 15 15 14 14 13 12 11 10 10 11 12 13 12 10 9 10 9 10 12 11 8 9 9 9 8 8 7 7 7 6 5 5 5 6 5 5 5 5 5 6 6 6 6 6 6 6 6 6 6 6 5 6 6 5 5 6 4 3 9 9 8 5 7 6 5 4 3 6 9 8 6 8 8 9 8 6 5 5 5 4 4
12 12 14 14 14 15 14 13 12 12 11 12 11 10 11 12 13 11 10 10 9 12 12 10 9 9 8 7 7 6 6 6 6 6 5 5 7 6 6 5 5 5 5 5 6 6 7 7 7 6 6 6 6 6 6 6 6 6 6 5 5 4 3 5 6 9 9 7 7 4 4 6 9 6 8 7 7 8 8 9 8 6 5 5 4
12 11 13 13 13 13 13 13 13 12 9 11 10 10 11 11 12 12 12 9 9 10 9 10 9 8 8 7 7 6 6 7 7 7 7 7 7 6 6 6 6 6 5 5 4 6 6 6 6 6 6 6 6 5 5 5 5 5 6 5 5 6 4 5 6 5 7 4 4 3 6 6 7 5 6 6 6 7 9 9 9 9 7 5 4
10 11 11 12 12 13 12 14 14 11 8 10 10 10 10 11 12 11 10 8 9 10 11 11 10 9 8 8 8 8 9 8 8 8 7 7 7 6 6 6 5 6 6 5 5 5 6 7 6 6 6 5 5 6 6 6 5 5 5 5 6 5 4 6 4 6 5 4 4 3 2 2 4 6 6 6 6 7 7 9 9 8 8 7 4
11 11 11 11 8 9 9 7 6 5 8 9 9 9 10 10 11 11 11 10 11 11 12 12 9 9 8 9 10 9 9 8 9 9 9 9 8 8 6 5 5 5 5 5 5 5 5 5 6 7 6 6 6 5 5 5 5 5 5 5 5 5 4 5 5 5 6 5 7 3 2 1 4 1 7 3 6 6 7 8 7 8 8 7 6
10 9 10 9 11 10 10 11 3 6 8 10 9 8 9 10 13 12 11 12 12 12 12 12 10 9 9 10 10 8 9 9 8 8 8 8 7 7 7 6 6 6 5 5 6 6 5 5 6 6 6 5 5 5 5 5 5 5 5 5 5 6 5 5 5 5 4 3 4 0 3 4 3 3 5 8 3 4 7 8 7 7 6 7 7
8 8 11 11 10 13 15 18 14 10 12 11 10 10 9 11 13 12 13 12 13 13 12 12 11 10 9 9 9 8 8 8 7 7 7 6 6 6 6 5 5 5 6 5 6 5 5 4 4 4 5 7 7 6 5 5 5 5 4 5 5 5 4 5 5 4 3 2 2 3 2 2 2 3 6 6 6 6 7 7 7 6 7 7 6
9 9 11 14 15 14 14 13 13 14 14 12 11 11 11 13 13 14 14 14 13 13 12 13 11 10 9 8 8 7 7 6 6 6 6 5 5 6 5 5 4 5 5 4 5 4 4 4 4 5 5 6 7 6 6 6 5 5 5 5 5 5 6 5 5 5 4 5 7 6 3 3 4 4 7 5 6 5 6 7 7 8 7 5 6
9 11 13 14 14 15 12 10 10 12 15 13 13 13 13 14 15 15 16 15 14 14 13 12 10 9 9 9 8 7 6 6 5 5 5 5 5 5 4 3 3 4 4 5 4 4 4 4 5 5 5 6 7 8 8 7 7 6 5 5 5 4 5 7 5 5 5 6 7 8 4 5 6 5 7 5 5 5 6 7 6 7 7 7 6
9 10 12 15 12 11 11 12 10 11 14 15 14 15 15 16 16 16 16 15 15 15 13 11 10 10 10 9 8 8 8 7 6 7 6 5 5 3 4 3 3 3 3 3 4 3 4 4 5 6 6 6 6 6 6 6 7 6 5 6 4 5 6 6 5 4 5 7 7 8 8 8 6 7 6 6 5 3 5 6 6 6 5 6 7
8 9 12 15 14 12 11 10 11 10 14 15 16 14 13 14 16 17 16 15 14 14 12 11 11 11 10 10 9 8 7 7 7 7 6 6 5 4 4 4 3 3 3 3 4 4 3 3 4 5 6 6 6 6 6 6 7 6 8 8 9 7 6 5 6 8 7 5 5 6 7 7 7 6 5 6 8 7 7 7 6 5 5 6 6
6 7 10 10 11 12 11 7 6 10 11 11 12 12 12 12 15 16 17 16 15 12 12 10 11 9 9 9 9 8 8 8 8 8 7 6 6 5 5 4 4 3 4 4 4 4 3 3 3 4 5 5 5 5 4 5 6 6 6 6 5 6 6 5 5 5 5 6 6 7 7 6 6 6 6 6 6 7 6 6 4 3 3 4 5
3 5 8 10 11 10 10 12 11 5 6 9 10 10 12 12 14 15 15 15 14 13 12 11 11 10 9 10 9 9 9 8 9 9 8 8 7 6 6 5 5 4 4 4 4 4 3 3 3 3 4 5 5 5 5 5 5 5 6 6 6 7 7 6 6 5 4 6 7 7 8 7 7 7 7 7 7 7 6 6 5 4 5 3 5
5 2 8 9 11 11 9 8 9 10 1 5 9 9 11 11 14 16 16 16 15 13 12 11 10 10 11 11 10 9 9 9 9 10 9 8 7 7 6 5 5 4 4 4 4 3 2 3 4 4 5 5 5 5 4 4 5 5 5 5 5 6 6 5 5 5 5 6 7 7 8 7 7 7 8 7 8 8 7 6 6 5 5 5 4
2 4 5 8 11 11 10 6 5 6 6 6 5 8 11 12 14 13 13 13 14 12 11 10 9 9 10 9 10 9 9 8 9 9 9 9 8 7 6 6 5 5 4 4 4 2 2 4 4 4 5 5 5 5 5 4 5 5 5 3 4 5 5 5 4 6 6 4 5 6 7 7 7 7 8 9 8 8 8 8 7 6 6 6 4
5 1 4 6 8 8 8 10 13 15 14 9 3 7 10 12 12 12 12 13 12 11 11 9 8 8 9 9 9 9 9 9 9 8 9 9 8 7 7 6 6 5 4 4 4 4 4 4 4 4 5 4 4 4 4 4 4 4 4 4 3 4 4 5 6 6 6 5 5 4 6 6 5 6 7 7 8 8 8 7 8 6 6 6 6
8 8 8 5 3 4 7 10 12 10 12 15 13 9 8 9 11 11 12 12 12 11 10 9 8 9 9 9 9 9 9 9 9 8 10 9 8 7 7 6 6 5 5 4 4 4 4 4 5 4 4 4 5 5 5 5 5 5 5 5 4 4 5 6 6 6 6 5 4 5 5 6 6 7 7 7 7 6 6 6 7 6 5 6 4
9 10 9 9 10 8 2 10 12 12 11 10 11 11 7 11 11 11 11 11 11 10 10 10 9 10 9 8 8 8 9 9 9 8 9 9 8 8 7 7 6 5 6 5 4 4 5 5 5 6 6 5 4 4 5 4 4 4 5 4 5 5 4 5 4 4 3 4 5 4 4 6 7 7 8 7 7 8 7 6 6 6 6 5 4
10 9 9 9 9 7 8 6 11 12 12 13 12 10 11 9 11 11 11 11 11 10 10 10 9 9 8 9 8 8 8 8 8 8 8 8 8 8 7 6 6 6 6 5 5 4 5 6 5 5 5 5 5 4 5 5 6 5 4 4 3 4 4 4 4 4 4 3 4 5 4 4 5 6 7 6 7 8 6 6 6 5 5 5 4
9 9 8 8 9 10 11 10 6 10 11 11 11 9 10 10 12 11 9 10 10 11 11 11 10 9 9 8 7 8 8 8 7 7 6 7 8 7 7 6 6 6 6 5 5 4 4 5 5 4 4 4 4 4 4 4 5 5 4 5 4 4 4 3 3 3 3 3 3 4 4 4 5 4 5 6 7 7 7 6 5 5 6 3 4
9 10 11 11 9 10 11 12 12 4 9 10 8 6 9 11 13 11 9 9 9 11 12 12 11 10 9 8 7 7 8 7 7 7 7 6 7 6 6 6 6 6 6 6 5 5 4 3 5 4 3 3 3 4 4 5 5 4 4 4 5 5 5 4 3 3 3 3 3 4 4 4 4 5 5 6 6 7 5 6 5 4 4 4 5
11 11 11 12 11 10 10 11 9 10 8 5 6 5 7 7 6 8 9 10 11 13 13 12 12 12 11 9 5 7 7 9 8 8 8 8 6 5 5 6 5 5 4 5 5 6 5 5 5 4 4 2 3 6 6 7 3 5 4 4 5 6 5 6 5 4 4 4 4 4 4 4 6 6 8 8 7 6 1 5 5 4 5 6 6
11 11 11 11 11 10 11 12 11 10 9 6 6 7 9 9 8 9 10 9 10 11 12 12 12 11 11 10 8 8 8 9 9 9 9 7 6 5 4 4 4 5 5 5 5 4 4 4 5 5 5 5 5 5 9 13 10 7 1 3 4 5 6 5 5 5 4 4 4 4 5 8 6 3 3 3 2 1 5 5 3 2 5 6 6
11 11 12 12 11 12 12 13 11 11 11 8 7 7 7 9 7 8 11 9 10 12 13 13 13 12 10 9 7 8 8 8 8 8 7 7 6 4 5 4 4 3 4 5 4 4 3 3 5 6 7 6 5 6 13 11 11 11 7 0 2 3 3 4 4 4 4 5 4 4 4 5 4 4 3 4 1 2 2 4 6 7 7 5 5
11 11 12 12 13 12 14 13 12 11 12 10 8 8 9 8 7 9 10 10 12 14 14 13 11 9 9 9 8 9 9 9 8 8 7 6 6 6 7 6 6 5 5 6 6 5 6 6 7 8 9 8 7 11 11 12 12 12 9 4 2 2 3 2 2 3 5 5 5 4 3 2 2 2 3 4 6 6 3 1 2 5 7 9 6
11 11 12 12 12 13 14 14 12 11 10 12 9 9 10 9 10 8 10 12 12 11 11 11 9 9 9 9 10 10 10 10 8 7 6 7 7 7 8 8 8 5 6 8 9 9 9 8 9 9 9 9 8 12 12 11 10 11 12 11 3 2 3 3 2 2 2 1 1 2 2 2 2 5 4 4 3 4 5 3 2 4 7 8 9
11 11 12 11 11 12 13 14 13 12 11 9 9 9 9 9 9 9 11 11 12 11 10 10 10 9 9 11 11 10 9 9 7 7 8 8 8 8 7 7 7 8 8 9 10 11 9 9 9 9 9 9 9 12 12 11 10 10 10 10 2 1 1 1 1 0 0 1 1 2 3 3 3 3 3 4 4 4 3 5 5 6 7 8 8
11 12 12 12 13 14 14 14 12 10 9 8 9 8 10 11 10 12 10 12 12 12 11 9 10 10 11 11 11 10 11 10 9 8 8 8 8 7 8 7 7 8 8 8 8 10 9 9 9 8 8 9 8 13 13 13 12 12 11 10 2 2 0 1 1 2 1 2 1 1 2 3 2 3 6 9 5 4 5 5 6 7 8 8 9
10 11 11 12 13 12 11 11 9 10 9 8 10 8 12 13 12 11 10 10 10 11 10 10 10 10 10 9 9 9 11 10 10 9 9 9 9 9 9 8 8 8 7 7 8 8 9 9 8 8 8 8 9 13 13 14 14 13 14 3 3 1 2 2 2 2 2 1 1 2 2 2 1 2 9 10 6 6 6 7 8 8 9 9 9
10 10 10 11 13 14 12 10 10 10 9 8 7 7 12 13 13 13 11 10 12 12 10 10 11 9 9 8 9 9 10 9 9 10 9 9 9 9 9 8 9 8 7 7 7 7 7 8 8 7 7 7 8 10 11 13 14 15 11 3 2 1 2 2 2 2 1 1 2 5 4 4 3 7 9 9 9 7 6 7 8 10 9 9 10
11 11 11 11 11 11 11 10 11 12 10 8 8 7 10 12 11 10 11 12 13 11 10 11 12 10 9 7 8 9 9 9 9 9 8 7 7 7 7 6 8 8 7 6 5 6 7 7 8 7 5 6 6 8 10 11 13 14 12 4 3 1 1 1 1 0 2 1 6 5 5 2 3 6 9 9 10 6 6 8 9 9 11 9 9
9 10 11 10 10 10 10 10 11 11 10 10 10 12 12 13 11 10 10 11 11 10 10 11 10 9 9 9 8 8 7 7 8 8 7 7 7 6 5 5 6 6 5 4 4 5 5 5 6 7 7 6 5 7 10 10 11 13 11 5 4 3 2 2 3 2 1 3 2 6 7 7 6 7 9 10 9 8 6 8 9 11 10 13 12
10 10 10 10 9 10 11 11 11 9 8 9 8 11 13 11 11 10 12 12 11 10 9 9 9 8 7 6 8 9 8 8 7 9 9 6 5 4 4 6 6 4 4 4 3 4 5 5 4 4 3 5 5 5 8 8 9 10 12 8 3 3 3 3 3 4 5 3 3 2 7 8 10 9 8 9 10 8 6 8 8 10 10 11 7
9 8 8 9 9 9 10 10 9 9 9 8 7 9 11 10 9 10 11 10 9 9 9 10 9 7 7 7 5 7 7 7 7 7 7 5 4 3 4 5 5 4 4 4 3 2 3 3 2 1 2 3 4 4 6 6 6 7 10 10 3 3 4 4 4 5 4 4 3 3 3 9 8 6 4 4 5 8 7 6 8 9 9 9 11
9 8 8 8 8 9 9 9 8 8 8 8 9 10 10 9 10 11 9 7 8 8 8 9 9 9 8 8 8 7 6 5 5 7 7 4 4 4 3 3 3 3 4 4 4 4 4 4 5 4 2 2 3 2 3 5 5 6 7 10 6 5 5 5 5 5 5 4 4 3 3 8 11 10 13 13 9 6 7 6 9 12 14 15 10
9 9 9 8 8 9 9 9 8 8 7 7 9 10 9 9 11 9 7 7 7 8 8 8 9 9 8 8 7 7 6 5 6 6 5 4 3 3 3 3 3 3 3 3 3 1 1 2 2 4 4 5 3 4 2 2 5 3 3 3 4 5 3 6 5 5 5 5 4 5 2 8 10 9 9 11 12 14 10 9 12 12 12 11 9
9 8 8 8 8 8 8 8 8 8 8 8 8 9 9 10 10 7 8 8 9 9 8 8 8 8 7 7 7 7 6 6 6 5 5 4 4 3 3 3 2 1 1 1 1 1 1 1 1 1 1 1 1 0 8 4 2 4 3 3 4 3 4 3 4 6 6 5 5 4 6 11 11 12 12 12 13 13 10 12 12 11 11 9 7
7 7 7 7 8 8 8 8 8 9 9 8 8 9 9 10 7 6 7 7 6 6 7 7 7 7 7 6 6 6 6 5 4 4 3 3 3 2 2 3 2 2 2 2 2 3 3 3 3 2 2 2 2 2 1 7 6 5 9 9 10 10 10 9 6 6 6 5 4 6 9 12 13 13 15 15 13 16 18 15 14 13 10 7 8
7 7 6 7 7 7 7 8 8 8 8 7 7 7 9 8 6 6 6 7 7 7 7 7 7 6 6 5 6 6 6 5 4 3 4 3 3 2 2 2 2 2 2 2 2 2 2 2 2 2 2 3 3 2 2 0 5 5 6 12 11 11 10 12 12 7 7 7 8 10 13 15 15 13 10 7 7 5 9 15 16 14 10 9 9
7 7 5 6 6 6 7 8 8 8 7 7 7 7 7 6 6 6 6 6 6 6 6 6 6 6 6 7 6 4 4 4 4 3 3 3 2 2 2 2 2 2 1 1 1 0 0 1 1 1 1 2 2 1 1 2 5 5 6 6 5 3 11 13 9 5 9 6 6 8 9 12 13 15 15 13 12 11 11 10 9 10 9 8 8
5 5 5 6 6 6 6 6 7 7 6 6 6 6 6 5 5 5 5 6 6 6 6 6 7 6 5 5 5 1 3 4 4 4 3 3 3 3 3 3 4 3 2 2 2 2 2 3 3 2 2 2 2 2 4 6 7 8 8 7 7 6 6 6 6 6 8 9 9 10 11 9 7 7 6 5 5 6 7 8 8 8 8 8 7
4 4 6 6 5 6 6 6 6 6 5 6 6 5 6 5 5 5 4 5 5 5 5 6 5 5 5 4 4 5 5 3 4 4 5 6 5 4 3 4 5 5 5 4 4 3 3 3 3 3 4 3 3 3 6 8 7 7 6 8 8 7 8 8 8 9 9 8 7 7 6 6 6 4 4 6 6 7 5 8 9 8 8 8 8
3 2 3 5 5 5 5 5 5 5 5 5 4 4 4 5 5 4 4 4 4 3 4 5 5 5 4 4 4 4 4 3 3 3 3 6 5 6 6 6 4 6 5 5 6 5 7 6 5 4 5 5 6 7 11 11 10 10 10 9 9 10 10 9 10 12 9 6 5 4 4 4 4 4 5 6 6 5 6 6 6 8 8 9 9
2 2 2 3 3 3 3 4 4 4 5 4 3 2 2 3 3 3 4 3 4 3 4 4 5 6 6 4 4 4 3 3 3 2 2 1 6 6 4 5 6 4 5 6 4 3 3 4 5 5 3 2 4 6 6 9 11 11 11 11 10 9 9 8 7 5 5 5 5 5 5 5 5 7 6 7 7 7 7 7 7 7 7 9 8
Wind_Direction
189 164 168 197 192 183 188 181 181 183 191 188 181 170 169 165 171 143 140 147 127 154 166 175 168 175 210 195 189 171 206 181 183 153 168 146 160 150 145 148 154 152 138 188 195 160 159 151 159 176 184 189 182 182 177 157 163 167 154 160 157 155 148 167 173 150 137 121 97 76 128 136 112 153 116 120 123 132 140 117 110 119 123 123 123
207 187 177 199 188 180 174 177 177 186 188 182 182 179 172 166 175 147 142 137 137 177 180 188 187 190 184 194 190 177 174 180 175 159 170 147 157 143 142 150 173 175 189 188 164 168 150 158 166 172 189 181 176 166 166 157 156 165 165 163 173 161 161 159 148 155 154 147 142 145 80 104 118 190 192 137 153 144 126 123 123 121 131 125 142
184 173 182 182 180 173 174 174 179 193 178 181 179 176 172 178 180 157 143 137 143 182 183 189 199 251 205 159 210 181 170 177 170 164 166 155 151 150 158 173 170 172 174 168 168 166 161 169 172 170 193 171 169 165 166 163 172 171 179 171 170 167 161 159 159 177 147 139 119 128 135 130 28 135 103 117 115 122 132 124 133 149 139 138 129
188 186 181 174 173 171 170 170 179 191 188 188 176 176 180 183 172 146 146 133 158 167 179 172 194 209 202 168 188 182 165 164 157 152 168 158 157 160 163 179 175 175 172 172 181 168 169 179 171 181 186 178 178 177 172 174 172 178 183 177 174 167 168 161 187 183 161 152 147 170 142 139 142 147 137 120 115 115 122 123 132 132 131 116 109
188 185 186 183 177 172 170 172 177 192 191 189 181 181 170 170 160 153 150 151 163 162 182 198 189 182 170 167 180 165 152 161 163 161 171 171 160 173 167 174 173 172 184 193 187 166 176 178 179 182 186 186 191 190 181 176 178 186 180 180 181 176 173 163 187 178 144 251 123 132 108 171 147 144 132 107 117 116 110 113 110 118 112 119 117
189 189 191 185 185 173 169 170 178 188 191 190 181 179 169 161 158 159 153 158 164 169 169 185 179 180 168 170 176 175 171 172 177 170 176 178 179 161 166 173 179 177 188 192 171 169 166 174 189 185 181 184 195 197 191 179 188 191 181 184 192 189 178 164 170 184 168 170 180 235 102 176 163 151 141 130 117 111 113 106 114 112 119 107 93
186 185 186 180 180 180 172 173 176 183 189 178 177 178 168 152 153 156 156 158 162 168 174 191 178 184 178 179 177 177 174 171 169 168 173 165 153 167 162 170 177 172 179 176 172 175 170 174 181 190 176 186 187 206 199 191 191 197 177 193 188 193 117 147 185 178 169 233 190 173 141 183 178 162 158 138 142 126 115 113 116 119 106 94 94
185 181 189 184 183 184 178 175 178 182 181 170 179 179 169 153 151 154 154 162 163 163 177 187 179 178 184 184 180 182 173 162 160 157 152 149 157 163 162 167 172 179 184 182 175 173 171 166 177 181 181 186 187 201 197 194 197 194 173 200 182 208 161 175 184 160 173 212 213 179 181 166 168 209 146 171 144 149 141 113 104 108 105 85 76
195 186 193 184 180 187 179 172 173 180 174 176 174 176 171 157 152 148 150 155 156 161 177 186 188 182 182 186 178 173 161 154 147 146 155 160 157 161 172 167 172 179 189 185 178 177 170 167 173 172 186 177 195 196 196 192 197 180 172 182 186 178 117 175 166 186 199 185 185 183 174 173 169 193 149 202 161 145 141 140 137 132 125 102 91
189 194 193 185 187 182 173 173 171 181 173 170 172 169 168 161 153 153 154 156 157 162 178 182 186 179 185 185 174 163 161 155 160 158 161 166 165 166 168 173 172 172 180 183 178 179 167 159 172 174 176 175 195 187 185 188 187 178 174 180 181 185 148 169 193 196 207 190 186 220 186 169 174 166 181 184 147 150 151 152 150 154 142 116 114
184 185 178 180 187 182 173 180 174 168 176 171 171 175 163 154 158 172 163 154 157 164 174 177 181 184 184 176 176 164 162 162 160 163 158 162 161 164 176 170 169 165 166 165 174 170 165 166 166 172 174 173 196 177 192 187 175 175 168 167 183 191 172 178 197 219 219 195 199 222 322 195 120 205 175 187 157 143 143 147 155 157 131 132 123
178 184 174 170 169 157 149 88 20 171 171 180 178 169 165 159 159 162 162 157 160 167 180 179 176 182 182 182 179 173 167 169 167 164 166 168 166 169 169 167 163 161 163 158 162 163 164 169 166 168 171 180 189 192 188 187 184 179 174 177 182 195 196 190 204 217 225 226 201 103 236 87 91 64 296 239 167 141 148 148 156 141 148 128 130
174 174 174 158 158 147 97 90 221 221 205 192 180 171 163 157 159 161 158 159 163 171 182 177 178 180 184 181 179 174 176 176 171 168 171 166 167 168 163 164 157 159 161 158 153 162 167 164 172 176 165 175 188 191 193 190 186 193 176 187 181 193 197 199 204 215 217 250 9 72 174 191 158 188 219 252 134 147 143 153 157 154 131 133 138
163 168 161 154 139 130 142 161 185 187 211 192 175 173 166 160 161 164 162 163 166 173 179 179 181 180 180 180 177 176 182 179 172 171 167 164 161 160 164 158 159 156 156 160 152 165 169 159 167 175 171 166 180 183 184 183 186 194 179 196 190 195 204 204 213 210 208 179 106 205 214 204 238 215 248 188 155 165 150 160 153 143 143 146 150
162 171 169 157 148 159 167 174 172 176 186 189 174 172 167 163 164 167 164 168 168 173 179 180 179 178 178 179 176 180 179 177 174 164 162 154 147 152 151 152 151 149 151 141 146 160 163 170 171 179 174 170 164 173 174 171 181 189 173 191 193 199 198 199 205 204 198 189 175 212 177 235 193 229 247 203 162 166 150 158 154 148 149 150 152
178 163 157 157 168 169 170 170 175 178 177 177 177 172 170 167 167 171 169 166 170 176 180 180 177 175 179 176 176 175 175 172 161 151 143 136 134 140 134 140 131 134 126 141 143 160 165 176 181 178 170 167 168 170 179 177 174 176 182 186 203 195 202 198 199 191 204 201 196 180 206 194 189 227 223 182 167 156 145 155 164 159 154 153 159
178 167 159 165 174 178 171 169 182 183 177 178 178 177 176 171 169 171 170 171 173 177 177 180 175 173 175 175 175 173 166 161 149 136 131 129 129 128 134 121 112 138 138 143 149 164 162 179 177 167 173 169 168 172 177 175 174 177 172 173 207 213 209 197 185 185 209 197 209 169 181 189 181 212 206 151 127 172 154 163 175 158 167 155 164
171 174 162 174 176 181 181 176 187 191 182 179 177 176 177 174 172 170 171 172 174 176 179 177 173 175 172 172 171 164 156 147 142 139 137 138 136 137 134 147 149 129 142 149 156 148 147 164 173 173 176 177 178 178 186 179 184 181 173 182 193 198 204 186 190 185 202 186 182 166 216 184 169 177 167 156 150 185 169 167 194 160 177 166 166
181 177 163 175 183 185 183 150 188 190 194 180 171 175 173 177 175 174 173 173 173 174 178 175 175 173 170 168 162 157 157 154 148 148 152 154 153 151 151 136 132 139 142 154 162 155 153 156 179 176 182 186 186 183 190 190 191 190 183 183 171 192 197 198 194 181 168 181 177 184 191 169 166 176 154 170 161 164 158 167 174 146 145 142 173
216 188 173 181 178 164 138 167 187 178 197 181 178 177 177 180 177 177 174 172 170 173 177 175 173 169 168 165 163 162 163 159 156 158 164 165 161 160 152 149 141 145 140 155 164 165 162 165 178 184 184 190 189 187 197 188 188 185 183 182 173 194 197 193 184 183 181 181 178 182 187 172 171 173 166 163 166 160 159 166 160 146 132 153 178
13 226 179 156 161 164 160 178 150 122 186 280 187 182 182 185 185 182 177 173 172 171 172 170 170 168 165 165 164 165 165 167 166 169 168 164 162 163 159 153 151 148 143 157 166 167 162 178 174 184 179 180 179 182 187 185 183 177 181 184 179 196 197 188 180 181 181 184 179 181 174 172 173 179 166 165 170 159 161 175 157 154 140 159 191
23 30 143 150 163 161 165 158 83 123 149 242 206 195 193 194 193 183 179 173 169 166 167 163 165 164 166 165 162 166 171 171 173 172 170 161 161 161 156 159 157 149 168 157 160 146 168 182 175 167 173 173 177 172 173 178 177 171 168 169 182 183 190 166 189 177 167 174 170 177 168 164 179 177 170 171 165 166 174 172 159 172 160 160 204
12 83 144 162 171 172 166 159 173 172 148 145 199 224 207 203 195 184 180 171 163 159 152 157 155 156 161 162 163 169 170 172 172 172 169 165 160 160 164 162 162 155 165 166 145 159 163 171 166 163 156 148 151 152 149 161 158 165 159 154 175 181 174 166 163 160 165 153 162 169 161 163 176 185 174 184 164 180 176 170 164 178 175 170 182
19 20 21 360 309 161 160 174 190 193 163 163 161 186 215 218 197 185 179 161 152 146 145 148 149 150 151 151 160 162 167 170 171 171 165 161 160 160 162 167 158 165 157 143 150 160 153 161 170 159 152 155 146 158 154 158 151 149 153 153 159 154 156 162 159 162 146 152 164 166 168 172 182 187 184 180 178 177 191 171 173 171 188 181 189
16 19 17 20 24 7 236 190 193 187 171 159 163 160 172 227 211 190 173 160 146 141 140 142 143 141 140 139 144 158 162 162 166 165 161 159 159 158 160 160 154 161 152 154 158 162 164 158 168 177 171 163 158 161 165 166 154 163 147 145 153 141 147 148 140 124 130 138 137 151 151 170 185 191 187 188 180 184 190 182 183 178 188 173 194
16 15 19 25 22 13 346 232 196 192 185 177 178 175 160 203 220 189 174 156 142 138 136 131 132 132 133 136 137 142 145 146 147 149 155 160 158 157 156 157 160 153 152 161 161 170 179 163 168 172 171 173 167 162 167 169 164 170 162 151 145 148 151 140 130 146 135 120 139 142 146 152 169 184 187 189 191 191 194 201 188 205 197 175 199
16 16 19 25 27 17 3 339 240 198 191 187 188 180 155 185 201 189 167 140 135 129 126 125 130 130 131 132 131 125 123 121 120 121 134 152 153 150 156 150 150 150 153 153 154 157 176 175 165 155 158 165 164 166 148 159 160 159 162 165 158 156 153 138 150 144 147 138 152 139 144 154 159 163 164 177 187 184 196 206 197 201 237 203 197
23 23 22 22 22 23 17 11 353 281 199 186 187 194 152 179 192 173 147 119 120 120 119 119 119 112 104 97 107 116 116 114 115 113 111 119 133 143 140 136 146 149 148 140 140 148 150 165 147 166 140 140 157 178 170 173 178 161 167 169 173 180 170 162 158 161 147 163 152 152 142 131 139 153 155 157 173 179 184 191 199 209 228 234 229
25 24 23 22 21 18 23 19 9 9 12 85 137 138 99 109 131 151 126 125 125 124 122 118 111 106 104 93 74 99 106 110 109 104 99 92 94 109 129 139 150 145 139 132 139 140 153 155 154 162 152 107 41 29 26 355 340 180 180 183 188 185 186 177 176 166 157 164 171 148 163 116 65 50 35 29 34 17 216 191 194 208 218 217 226
27 23 21 22 21 22 31 29 17 14 6 32 62 102 113 121 128 125 118 118 113 110 111 109 109 112 113 118 122 109 106 103 99 95 91 81 63 83 112 132 144 144 137 126 128 131 148 152 142 111 83 63 47 43 359 339 335 335 212 178 181 194 195 177 188 160 165 167 166 163 86 70 80 78 81 67 77 352 336 340 332 233 216 225 227
31 27 27 25 24 28 36 34 20 16 10 348 49 34 46 67 76 94 99 93 89 102 106 114 119 123 112 107 102 96 99 92 87 86 83 85 92 77 82 84 86 101 112 116 118 123 118 123 111 96 79 66 49 18 348 342 338 339 329 92 191 183 195 183 182 179 178 179 179 179 144 133 151 155 158 135 126 17 306 305 318 331 333 320 273
35 34 34 31 30 31 37 34 22 23 13 356 33 51 49 55 70 80 87 85 87 99 105 105 107 99 93 89 88 92 88 87 88 90 96 92 91 92 92 82 68 57 71 86 95 95 95 87 85 85 76 65 59 14 354 355 345 335 326 309 174 160 169 196 194 193 195 179 184 168 187 141 214 32 335 169 170 188 202 311 334 331 319 305 293
40 41 43 41 37 39 41 41 36 26 21 6 17 54 56 54 62 62 78 82 80 80 82 81 79 81 78 83 81 78 81 81 84 92 93 95 91 89 90 92 90 88 82 78 79 80 76 77 77 76 72 62 53 16 3 3 353 343 332 315 239 135 194 160 158 219 355 54 104 150 163 229 101 118 231 251 264 185 177 186 247 274 269 258 270
51 49 49 49 43 45 45 47 49 42 33 9 12 49 59 57 61 58 74 75 80 74 73 71 70 71 83 85 83 85 87 83 77 85 96 91 85 82 83 85 96 90 82 84 83 80 78 75 75 76 72 57 43 7 3 3 1 346 332 316 312 50 3 82 98 93 200 216 232 241 237 211 197 190 240 239 250 267 206 197 213 229 235 217 225
54 55 54 53 54 52 47 44 42 38 35 31 27 39 65 59 54 62 60 75 75 82 76 67 67 67 74 77 85 90 91 93 98 94 87 85 84 84 81 80 79 80 81 84 88 86 79 80 80 81 76 63 40 8 8 4 4 351 338 303 33 330 40 82 63 54 11 30 338 325 297 281 278 275 35 25 337 293 268 250 245 238 239 244 233
57 55 50 52 54 53 48 39 24 37 26 38 54 43 70 66 53 52 55 55 67 67 61 65 66 60 60 71 87 89 88 89 88 87 84 84 84 82 80 78 78 76 77 81 83 85 87 84 83 84 83 71 50 22 9 7 359 355 324 315 35 18 31 33 43 44 337 17 15 326 307 293 293 47 53 42 10 324 290 269 255 249 250 247 244
65 60 59 60 60 59 48 46 37 31 14 11 28 47 71 72 67 62 52 51 59 59 57 57 60 52 52 58 61 67 77 81 81 82 82 81 81 79 79 78 79 73 67 63 68 75 80 84 80 78 82 79 60 31 18 10 3 355 338 31 3 24 44 34 24 360 337 16 37 12 345 332 302 70 23 30 17 328 280 268 263 261 258 254 254
74 77 73 66 64 61 51 49 49 39 23 16 14 40 65 67 66 64 60 59 61 59 53 56 61 58 53 51 62 65 66 70 75 76 74 67 63 66 68 68 78 81 74 65 65 68 66 65 70 70 63 85 76 50 27 16 5 1 339 341 344 357 360 345 311 305 313 272 93 68 351 345 5 49 27 24 11 330 279 270 269 272 263 261 255
70 74 76 72 67 62 56 44 41 40 25 18 26 31 48 56 54 59 65 68 65 63 66 70 65 56 48 46 52 66 78 80 80 76 70 66 62 57 45 56 74 75 69 63 59 73 75 67 61 64 43 64 80 75 45 22 10 5 352 334 340 332 316 353 319 286 278 290 139 132 75 58 48 43 32 19 10 351 288 277 272 269 270 269 265
71 72 74 76 73 65 57 52 50 42 23 24 25 46 50 52 55 57 62 63 63 72 74 73 73 69 66 64 66 68 62 64 75 83 74 71 83 87 83 78 66 68 84 80 71 74 74 65 54 41 48 50 57 66 63 30 21 7 1 337 330 341 342 332 312 312 299 279 280 147 104 90 82 57 37 17 351 347 320 300 294 273 269 267 307
52 52 61 71 65 63 64 64 62 55 45 37 36 54 57 53 55 59 61 67 71 67 68 73 76 74 72 70 68 77 81 80 74 67 73 65 73 83 100 95 107 115 112 105 98 90 101 112 105 81 56 66 49 35 92 62 29 16 7 354 338 20 355 331 312 297 282 284 270 272 136 104 90 70 24 349 320 315 309 291 277 272 281 336 338
56 48 53 67 70 74 76 73 67 64 62 56 55 61 65 63 61 63 63 67 70 72 76 77 77 76 74 73 66 60 64 75 86 86 77 59 57 65 63 89 92 96 111 119 144 165 159 148 151 145 127 104 99 71 26 102 57 33 24 7 355 41 12 318 306 294 294 285 296 299 318 50 29 4 335 321 306 272 270 275 264 274 298 308 314
60 59 51 58 61 56 58 65 68 65 58 62 69 70 71 72 70 67 69 70 72 75 76 80 81 80 78 75 72 69 69 66 64 70 85 88 83 79 88 97 118 138 136 136 125 106 156 134 150 157 160 162 161 163 178 42 86 39 40 13 2 344 360 300 303 298 298 287 292 297 70 38 349 318 296 289 290 291 282 258 258 267 271 286 291
60 61 64 67 73 68 64 54 53 56 60 60 62 67 67 71 73 78 82 82 81 81 80 79 77 77 78 75 74 71 65 65 63 69 66 58 48 38 41 40 32 10 69 91 84 72 24 64 17 38 65 84 121 319 153 185 109 156 187 215 205 225 273 289 305 274 275 281 267 279 327 330 306 289 275 262 259 258 254 267 278 280 282 283 272
76 71 59 52 60 62 64 63 61 65 64 63 61 66 67 69 71 75 78 82 88 89 88 87 86 84 77 73 71 69 64 58 54 47 64 72 70 35 51 42 10 21 13 16 44 30 18 11 5 2 3 354 351 336 10 161 182 195 196 198 205 201 207 223 246 258 250 274 335 312 274 264 262 261 260 257 247 238 238 241 244 253 255 255 243
102 94 89 86 84 70 64 65 66 69 72 71 69 69 71 70 71 70 73 75 74 73 71 70 71 71 75 85 87 84 74 72 69 69 60 46 42 47 47 50 42 51 34 29 29 18 19 23 354 352 346 333 322 308 308 153 179 195 203 188 213 206 208 210 232 274 299 284 265 253 254 251 250 243 246 257 271 277 206 214 221 218 235 236 234
86 87 97 94 88 78 70 62 62 58 62 63 65 66 64 60 59 67 73 77 79 81 79 75 74 79 71 58 47 45 68 70 50 59 68 63 54 57 59 47 46 42 72 67 54 76 8 68 335 336 299 296 287 295 331 32 12 351 340 329 301 237 205 221 230 224 218 252 259 265 285 284 277 275 267 260 255 251 252 239 227 213 221 241 240
72 71 72 73 71 74 72 65 58 54 52 54 57 61 62 59 59 57 61 62 62 56 67 70 65 59 57 65 74 4 329 65 53 47 52 61 60 45 50 42 27 15 4 25 24 19 12 11 349 348 336 326 338 346 44 13 353 345 335 327 323 322 331 345 329 340 337 312 302 287 268 265 274 271 270 287 292 301 301 301 297 296 286 278 276
58 31 31 52 57 63 66 64 52 43 40 44 41 43 49 53 50 57 57 66 69 65 60 61 57 59 61 56 49 45 44 50 73 75 67 40 26 18 33 72 45 18 7 354 352 18 32 9 340 347 342 336 341 3 33 14 342 333 319 319 320 325 333 324 354 1 316 299 290 290 299 295 297 301 303 299 303 304 305 302 297 292 289 286 281
70 46 58 66 53 51 50 47 44 27 21 22 27 33 29 34 32 34 44 48 45 53 53 46 44 45 49 48 43 50 49 53 53 75 109 105 47 28 16 360 80 84 46 16 346 359 4 346 340 347 17 348 341 349 353 337 326 323 314 298 290 291 290 287 305 304 288 290 288 292 294 302 308 308 311 307 304 303 305 302 299 295 288 281 283
140 126 100 78 71 59 49 45 34 11 3 360 350 1 22 29 32 22 24 23 22 27 35 46 46 43 12 3 40 37 42 41 45 33 44 107 146 135 110 88 16 12 356 356 357 338 336 339 328 324 7 125 241 289 322 331 327 315 311 308 306 302 295 289 289 302 276 282 300 305 305 302 304 309 308 306 305 303 302 305 302 300 295 292 285